Year,Month,Day,Hour,Minute,Value (Times are PST for temperature in C)
2015,04,11,00,00,4.80
2015,04,11,00,05,4.70
2015,04,11,00,06,4.80
2015,04,11,00,07,4.80
2015,04,11,00,08,4.90
2015,04,11,00,09,5.00
2015,04,11,00,10,5.10
2015,04,11,00,11,5.20
2015,04,11,00,12,5.30
2015,04,11,00,13,5.40
2015,04,11,00,14,5.40
2015,04,11,00,15,5.40
2015,04,11,00,16,5.40
2015,04,11,00,17,5.50
2015,04,11,00,18,5.60
2015,04,11,00,19,5.60
2015,04,11,00,20,5.70
2015,04,11,00,21,5.80
2015,04,11,00,22,5.90
2015,04,11,00,23,6.10
2015,04,11,00,24,6.20
2015,04,11,00,25,6.30
2015,04,11,00,26,6.30
2015,04,11,00,27,6.30
2015,04,11,00,28,6.40
2015,04,11,00,29,6.50
2015,04,11,00,30,6.60
2015,04,11,00,31,6.80
2015,04,11,00,32,6.90
2015,04,11,00,33,7.00
2015,04,11,00,34,7.00
2015,04,11,00,35,7.00
2015,04,11,00,36,7.00
2015,04,11,00,37,7.10
2015,04,11,00,38,7.00
2015,04,11,00,39,7.00
2015,04,11,00,40,6.90
2015,04,11,00,41,6.80
2015,04,11,00,42,6.80
2015,04,11,00,43,6.70
2015,04,11,00,44,6.60
2015,04,11,00,45,6.50
2015,04,11,00,46,6.50
2015,04,11,00,47,6.50
2015,04,11,00,48,6.50
2015,04,11,00,49,6.50
2015,04,11,00,50,6.40
2015,04,11,00,51,6.30
2015,04,11,00,52,6.30
2015,04,11,00,53,6.20
2015,04,11,00,54,6.10
2015,04,11,00,55,6.10
2015,04,11,00,56,6.10
2015,04,11,00,57,6.10
2015,04,11,00,58,6.10
2015,04,11,00,59,6.20
2015,04,11,01,00,6.20
2015,04,11,01,01,6.20
2015,04,11,01,02,6.20
2015,04,11,01,03,6.20
2015,04,11,01,04,6.20
2015,04,11,01,05,6.20
2015,04,11,01,06,6.20
2015,04,11,01,07,6.20
2015,04,11,01,08,6.20
2015,04,11,01,09,6.10
2015,04,11,01,10,6.10
2015,04,11,01,11,6.10
2015,04,11,01,12,6.00
2015,04,11,01,13,6.00
2015,04,11,01,14,6.00
2015,04,11,01,15,6.00
2015,04,11,01,16,6.00
2015,04,11,01,17,6.00
2015,04,11,01,18,6.00
2015,04,11,01,19,6.00
2015,04,11,01,20,6.10
2015,04,11,01,21,6.10
2015,04,11,01,22,6.10
2015,04,11,01,23,6.00
2015,04,11,01,24,6.00
2015,04,11,01,25,5.90
2015,04,11,01,26,5.80
2015,04,11,01,27,5.80
2015,04,11,01,28,5.70
2015,04,11,01,29,5.70
2015,04,11,01,30,5.70
2015,04,11,01,31,5.60
2015,04,11,01,32,5.60
2015,04,11,01,33,5.70
2015,04,11,01,34,5.70
2015,04,11,01,35,5.70
2015,04,11,01,36,5.70
2015,04,11,01,37,5.60
2015,04,11,01,38,5.50
2015,04,11,01,39,5.40
2015,04,11,01,40,5.40
2015,04,11,01,41,5.30
2015,04,11,01,42,5.30
2015,04,11,01,43,5.30
2015,04,11,01,44,5.20
2015,04,11,01,45,5.20
2015,04,11,01,46,5.20
2015,04,11,01,47,5.20
2015,04,11,01,48,5.10
2015,04,11,01,49,5.10
2015,04,11,01,50,5.10
2015,04,11,01,51,5.10
2015,04,11,01,52,5.10
2015,04,11,01,53,5.20
2015,04,11,01,54,5.20
2015,04,11,01,55,5.10
2015,04,11,01,56,5.10
2015,04,11,01,57,5.20
2015,04,11,01,58,5.20
2015,04,11,01,59,5.20
2015,04,11,02,00,5.20
2015,04,11,02,01,5.20
2015,04,11,02,02,5.20
2015,04,11,02,03,5.20
2015,04,11,02,04,5.10
2015,04,11,02,05,5.10
2015,04,11,02,06,5.10
2015,04,11,02,07,5.00
2015,04,11,02,08,5.00
2015,04,11,02,09,5.00
2015,04,11,02,10,5.00
2015,04,11,02,11,5.00
2015,04,11,02,12,5.00
2015,04,11,02,13,4.90
2015,04,11,02,14,4.90
2015,04,11,02,15,4.90
2015,04,11,02,16,4.90
2015,04,11,02,17,4.80
2015,04,11,02,18,4.80
2015,04,11,02,19,4.80
2015,04,11,02,20,4.80
2015,04,11,02,21,4.80
2015,04,11,02,22,4.80
2015,04,11,02,23,4.80
2015,04,11,02,24,4.80
2015,04,11,02,25,4.80
2015,04,11,02,26,4.80
2015,04,11,02,27,4.70
2015,04,11,02,28,4.70
2015,04,11,02,29,4.70
2015,04,11,02,30,4.60
2015,04,11,02,31,4.60
2015,04,11,02,32,4.60
2015,04,11,02,33,4.60
2015,04,11,02,34,4.60
2015,04,11,02,35,4.60
2015,04,11,02,36,4.60
2015,04,11,02,37,4.60
2015,04,11,02,38,4.60
2015,04,11,02,39,4.50
2015,04,11,02,40,4.50
2015,04,11,02,41,4.40
2015,04,11,02,42,4.40
2015,04,11,02,43,4.40
2015,04,11,02,44,4.50
2015,04,11,02,45,4.50
2015,04,11,02,46,4.60
2015,04,11,02,47,4.70
2015,04,11,02,48,4.70
2015,04,11,02,49,4.70
2015,04,11,02,50,4.70
2015,04,11,02,51,4.70
2015,04,11,02,52,4.70
2015,04,11,02,53,4.70
2015,04,11,02,54,4.70
2015,04,11,02,55,4.70
2015,04,11,02,56,4.70
2015,04,11,02,57,4.60
2015,04,11,02,58,4.60
2015,04,11,02,59,4.50
2015,04,11,03,00,4.50
2015,04,11,03,01,4.50
2015,04,11,03,02,4.60
2015,04,11,03,03,4.60
2015,04,11,03,04,4.50
2015,04,11,03,05,4.50
2015,04,11,03,06,4.50
2015,04,11,03,07,4.40
2015,04,11,03,08,4.40
2015,04,11,03,09,4.40
2015,04,11,03,10,4.30
2015,04,11,03,11,4.30
2015,04,11,03,12,4.30
2015,04,11,03,13,4.30
2015,04,11,03,14,4.30
2015,04,11,03,15,4.40
2015,04,11,03,16,4.40
2015,04,11,03,17,4.50
2015,04,11,03,18,4.50
2015,04,11,03,19,4.50
2015,04,11,03,20,4.50
2015,04,11,03,21,4.60
2015,04,11,03,22,4.60
2015,04,11,03,23,4.60
2015,04,11,03,24,4.60
2015,04,11,03,25,4.80
2015,04,11,03,26,4.90
2015,04,11,03,27,5.00
2015,04,11,03,28,5.10
2015,04,11,03,29,5.10
2015,04,11,03,30,5.20
2015,04,11,03,31,5.30
2015,04,11,03,32,5.40
2015,04,11,03,33,5.40
2015,04,11,03,34,5.40
2015,04,11,03,35,5.50
2015,04,11,03,36,5.60
2015,04,11,03,37,5.60
2015,04,11,03,38,5.60
2015,04,11,03,39,5.70
2015,04,11,03,40,5.60
2015,04,11,03,41,5.70
2015,04,11,03,42,5.70
2015,04,11,03,43,5.70
2015,04,11,03,44,5.60
2015,04,11,03,45,5.60
2015,04,11,03,46,5.50
2015,04,11,03,47,5.40
2015,04,11,03,48,5.40
2015,04,11,03,49,5.30
2015,04,11,03,50,5.30
2015,04,11,03,51,5.20
2015,04,11,03,52,5.20
2015,04,11,03,53,5.20
2015,04,11,03,54,5.20
2015,04,11,03,55,5.20
2015,04,11,03,56,5.30
2015,04,11,03,57,5.30
2015,04,11,03,58,5.30
2015,04,11,03,59,5.30
2015,04,11,04,00,5.30
2015,04,11,04,01,5.30
2015,04,11,04,02,5.30
2015,04,11,04,03,5.30
2015,04,11,04,04,5.30
2015,04,11,04,05,5.30
2015,04,11,04,06,5.30
2015,04,11,04,07,5.40
2015,04,11,04,08,5.40
2015,04,11,04,09,5.40
2015,04,11,04,10,5.40
2015,04,11,04,11,5.50
2015,04,11,04,12,5.50
2015,04,11,04,13,5.50
2015,04,11,04,14,5.50
2015,04,11,04,15,5.50
2015,04,11,04,16,5.50
2015,04,11,04,17,5.50
2015,04,11,04,18,5.50
2015,04,11,04,19,5.50
2015,04,11,04,20,5.60
2015,04,11,04,21,5.60
2015,04,11,04,22,5.60
2015,04,11,04,23,5.60
2015,04,11,04,24,5.50
2015,04,11,04,25,5.50
2015,04,11,04,26,5.50
2015,04,11,04,27,5.50
2015,04,11,04,28,5.60
2015,04,11,04,29,5.60
2015,04,11,04,30,5.70
2015,04,11,04,31,5.80
2015,04,11,04,32,5.80
2015,04,11,04,33,5.80
2015,04,11,04,34,5.80
2015,04,11,04,35,5.80
2015,04,11,04,36,5.80
2015,04,11,04,37,5.80
2015,04,11,04,38,5.70
2015,04,11,04,39,5.60
2015,04,11,04,40,5.60
2015,04,11,04,41,5.60
2015,04,11,04,42,5.60
2015,04,11,04,43,5.70
2015,04,11,04,44,5.60
2015,04,11,04,45,5.60
2015,04,11,04,46,5.60
2015,04,11,04,47,5.60
2015,04,11,04,48,5.50
2015,04,11,04,49,5.50
2015,04,11,04,50,5.40
2015,04,11,04,51,5.40
2015,04,11,04,52,5.40
2015,04,11,04,53,5.40
2015,04,11,04,54,5.40
2015,04,11,04,55,5.40
2015,04,11,04,56,5.40
2015,04,11,04,57,5.50
2015,04,11,04,58,5.50
2015,04,11,04,59,5.50
2015,04,11,05,00,5.50
2015,04,11,05,01,5.50
2015,04,11,05,02,5.40
2015,04,11,05,03,5.40
2015,04,11,05,04,5.40
2015,04,11,05,05,5.40
2015,04,11,05,06,5.40
2015,04,11,05,07,5.50
2015,04,11,05,08,5.50
2015,04,11,05,09,5.50
2015,04,11,05,10,5.50
2015,04,11,05,11,5.50
2015,04,11,05,12,5.50
2015,04,11,05,13,5.50
2015,04,11,05,14,5.50
2015,04,11,05,15,5.50
2015,04,11,05,16,5.40
2015,04,11,05,17,5.40
2015,04,11,05,18,5.40
2015,04,11,05,19,5.40
2015,04,11,05,20,5.40
2015,04,11,05,21,5.40
2015,04,11,05,22,5.40
2015,04,11,05,23,5.40
2015,04,11,05,24,5.40
2015,04,11,05,25,5.30
2015,04,11,05,26,5.30
2015,04,11,05,27,5.30
2015,04,11,05,28,5.20
2015,04,11,05,29,5.20
2015,04,11,05,30,5.20
2015,04,11,05,31,5.10
2015,04,11,05,32,5.10
2015,04,11,05,33,5.00
2015,04,11,05,34,5.00
2015,04,11,05,35,4.90
2015,04,11,05,36,4.90
2015,04,11,05,37,4.90
2015,04,11,05,38,4.90
2015,04,11,05,39,4.90
2015,04,11,05,40,4.90
2015,04,11,05,41,5.00
2015,04,11,05,42,5.00
2015,04,11,05,43,5.10
2015,04,11,05,44,5.10
2015,04,11,05,45,5.10
2015,04,11,05,46,5.10
2015,04,11,05,47,5.10
2015,04,11,05,48,5.00
2015,04,11,05,49,5.00
2015,04,11,05,50,5.00
2015,04,11,05,51,4.90
2015,04,11,05,52,4.90
2015,04,11,05,53,4.90
2015,04,11,05,54,4.90
2015,04,11,05,55,4.90
2015,04,11,05,56,4.90
2015,04,11,05,57,5.00
2015,04,11,05,58,5.00
2015,04,11,05,59,5.10
2015,04,11,06,00,5.10
2015,04,11,06,01,5.10
2015,04,11,06,02,5.10
2015,04,11,06,03,5.10
2015,04,11,06,04,5.10
2015,04,11,06,05,5.10
2015,04,11,06,06,5.10
2015,04,11,06,07,5.00
2015,04,11,06,08,5.00
2015,04,11,06,09,5.00
2015,04,11,06,10,5.00
2015,04,11,06,11,5.00
2015,04,11,06,12,5.00
2015,04,11,06,13,5.00
2015,04,11,06,14,5.00
2015,04,11,06,15,5.00
2015,04,11,06,16,5.00
2015,04,11,06,17,5.00
2015,04,11,06,18,5.00
2015,04,11,06,19,5.00
2015,04,11,06,20,5.00
2015,04,11,06,21,5.00
2015,04,11,06,22,5.00
2015,04,11,06,23,5.00
2015,04,11,06,24,5.10
2015,04,11,06,25,5.10
2015,04,11,06,26,5.10
2015,04,11,06,27,5.10
2015,04,11,06,28,5.10
2015,04,11,06,29,5.20
2015,04,11,06,30,5.20
2015,04,11,06,31,5.20
2015,04,11,06,32,5.10
2015,04,11,06,33,5.10
2015,04,11,06,34,5.10
2015,04,11,06,35,5.00
2015,04,11,06,36,5.00
2015,04,11,06,37,5.00
2015,04,11,06,38,5.00
2015,04,11,06,39,5.00
2015,04,11,06,40,5.00
2015,04,11,06,41,4.90
2015,04,11,06,42,4.90
2015,04,11,06,43,5.00
2015,04,11,06,44,5.00
2015,04,11,06,45,5.00
2015,04,11,06,46,5.00
2015,04,11,06,47,5.00
2015,04,11,06,48,5.00
2015,04,11,06,49,5.10
2015,04,11,06,50,5.10
2015,04,11,06,51,5.10
2015,04,11,06,52,5.10
2015,04,11,06,53,5.20
2015,04,11,06,54,5.20
2015,04,11,06,55,5.20
2015,04,11,06,56,5.20
2015,04,11,06,57,5.20
2015,04,11,06,58,5.20
2015,04,11,06,59,5.20
2015,04,11,07,00,5.20
2015,04,11,07,01,5.20
2015,04,11,07,02,5.20
2015,04,11,07,03,5.20
2015,04,11,07,04,5.30
2015,04,11,07,05,5.30
2015,04,11,07,06,5.30
2015,04,11,07,07,5.30
2015,04,11,07,08,5.30
2015,04,11,07,09,5.30
2015,04,11,07,10,5.30
2015,04,11,07,11,5.30
2015,04,11,07,12,5.30
2015,04,11,07,13,5.40
2015,04,11,07,14,5.40
2015,04,11,07,15,5.40
2015,04,11,07,16,5.50
2015,04,11,07,17,5.50
2015,04,11,07,18,5.60
2015,04,11,07,19,5.60
2015,04,11,07,20,5.70
2015,04,11,07,21,5.70
2015,04,11,07,22,5.80
2015,04,11,07,23,5.90
2015,04,11,07,24,5.90
2015,04,11,07,25,6.00
2015,04,11,07,26,6.10
2015,04,11,07,27,6.10
2015,04,11,07,28,6.20
2015,04,11,07,29,6.20
2015,04,11,07,30,6.20
2015,04,11,07,31,6.20
2015,04,11,07,32,6.30
2015,04,11,07,33,6.30
2015,04,11,07,34,6.30
2015,04,11,07,35,6.30
2015,04,11,07,36,6.30
2015,04,11,07,37,6.30
2015,04,11,07,38,6.30
2015,04,11,07,39,6.30
2015,04,11,07,40,6.30
2015,04,11,07,41,6.30
2015,04,11,07,42,6.20
2015,04,11,07,43,6.20
2015,04,11,07,44,6.20
2015,04,11,07,45,6.20
2015,04,11,07,46,6.10
2015,04,11,07,47,6.10
2015,04,11,07,48,6.10
2015,04,11,07,49,6.10
2015,04,11,07,50,6.10
2015,04,11,07,51,6.10
2015,04,11,07,52,6.10
2015,04,11,07,53,6.10
2015,04,11,07,54,6.10
2015,04,11,07,55,6.10
2015,04,11,07,56,6.10
2015,04,11,07,57,6.10
2015,04,11,07,58,6.10
2015,04,11,07,59,6.10
2015,04,11,08,00,6.10
2015,04,11,08,01,6.10
2015,04,11,08,02,6.10
2015,04,11,08,03,6.10
2015,04,11,08,04,6.10
2015,04,11,08,05,6.10
2015,04,11,08,06,6.10
2015,04,11,08,07,6.10
2015,04,11,08,08,6.10
2015,04,11,08,09,6.20
2015,04,11,08,10,6.20
2015,04,11,08,11,6.20
2015,04,11,08,12,6.20
2015,04,11,08,13,6.20
2015,04,11,08,14,6.20
2015,04,11,08,15,6.20
2015,04,11,08,16,6.20
2015,04,11,08,17,6.20
2015,04,11,08,18,6.20
2015,04,11,08,19,6.20
2015,04,11,08,20,6.20
2015,04,11,08,21,6.20
2015,04,11,08,22,6.20
2015,04,11,08,23,6.20
2015,04,11,08,24,6.30
2015,04,11,08,25,6.30
2015,04,11,08,26,6.30
2015,04,11,08,27,6.30
2015,04,11,08,28,6.30
2015,04,11,08,29,6.30
2015,04,11,08,30,6.30
2015,04,11,08,31,6.30
2015,04,11,08,32,6.40
2015,04,11,08,33,6.40
2015,04,11,08,34,6.40
2015,04,11,08,35,6.40
2015,04,11,08,36,6.40
2015,04,11,08,37,6.40
2015,04,11,08,38,6.40
2015,04,11,08,39,6.40
2015,04,11,08,40,6.40
2015,04,11,08,41,6.40
2015,04,11,08,42,6.40
2015,04,11,08,43,6.40
2015,04,11,08,44,6.50
2015,04,11,08,45,6.50
2015,04,11,08,46,6.50
2015,04,11,08,47,6.60
2015,04,11,08,48,6.60
2015,04,11,08,49,6.60
2015,04,11,08,50,6.60
2015,04,11,08,51,6.60
2015,04,11,08,52,6.70
2015,04,11,08,53,6.70
2015,04,11,08,54,6.70
2015,04,11,08,55,6.60
2015,04,11,08,56,6.60
2015,04,11,08,57,6.60
2015,04,11,08,58,6.60
2015,04,11,08,59,6.60
2015,04,11,09,00,6.60
2015,04,11,09,01,6.50
2015,04,11,09,02,6.50
2015,04,11,09,03,6.50
2015,04,11,09,04,6.50
2015,04,11,09,05,6.50
2015,04,11,09,06,6.40
2015,04,11,09,07,6.50
2015,04,11,09,08,6.50
2015,04,11,09,09,6.50
2015,04,11,09,10,6.50
2015,04,11,09,11,6.50
2015,04,11,09,12,6.50
2015,04,11,09,13,6.50
2015,04,11,09,14,6.50
2015,04,11,09,15,6.50
2015,04,11,09,16,6.50
2015,04,11,09,17,6.50
2015,04,11,09,18,6.60
2015,04,11,09,19,6.60
2015,04,11,09,20,6.60
2015,04,11,09,21,6.60
2015,04,11,09,22,6.60
2015,04,11,09,23,6.70
2015,04,11,09,24,6.70
2015,04,11,09,25,6.70
2015,04,11,09,26,6.70
2015,04,11,09,27,6.70
2015,04,11,09,28,6.80
2015,04,11,09,29,6.80
2015,04,11,09,30,6.80
2015,04,11,09,31,6.80
2015,04,11,09,32,6.80
2015,04,11,09,33,6.80
2015,04,11,09,34,6.80
2015,04,11,09,35,6.80
2015,04,11,09,36,6.90
2015,04,11,09,37,6.90
2015,04,11,09,38,6.90
2015,04,11,09,39,6.90
2015,04,11,09,40,6.90
2015,04,11,09,41,6.90
2015,04,11,09,42,6.90
2015,04,11,09,43,6.90
2015,04,11,09,44,6.90
2015,04,11,09,45,6.90
2015,04,11,09,46,6.90
2015,04,11,09,47,7.00
2015,04,11,09,48,7.00
2015,04,11,09,49,7.10
2015,04,11,09,50,7.10
2015,04,11,09,51,7.10
2015,04,11,09,52,7.20
2015,04,11,09,53,7.20
2015,04,11,09,54,7.30
2015,04,11,09,55,7.40
2015,04,11,09,56,7.50
2015,04,11,09,57,7.60
2015,04,11,09,58,7.70
2015,04,11,09,59,7.70
2015,04,11,10,00,7.80
2015,04,11,10,01,7.80
2015,04,11,10,02,7.80
2015,04,11,10,03,7.80
2015,04,11,10,04,7.80
2015,04,11,10,05,7.80
2015,04,11,10,06,7.80
2015,04,11,10,07,7.80
2015,04,11,10,08,7.80
2015,04,11,10,09,7.80
2015,04,11,10,10,7.80
2015,04,11,10,11,7.80
2015,04,11,10,12,7.80
2015,04,11,10,13,7.80
2015,04,11,10,14,7.80
2015,04,11,10,15,7.80
2015,04,11,10,16,7.70
2015,04,11,10,17,7.70
2015,04,11,10,18,7.70
2015,04,11,10,19,7.70
2015,04,11,10,20,7.80
2015,04,11,10,21,7.80
2015,04,11,10,22,7.80
2015,04,11,10,23,7.90
2015,04,11,10,24,7.90
2015,04,11,10,25,7.90
2015,04,11,10,26,7.90
2015,04,11,10,27,7.90
2015,04,11,10,28,7.90
2015,04,11,10,29,7.90
2015,04,11,10,30,7.90
2015,04,11,10,31,7.90
2015,04,11,10,32,7.90
2015,04,11,10,33,7.90
2015,04,11,10,34,7.90
2015,04,11,10,35,7.90
2015,04,11,10,36,7.90
2015,04,11,10,37,8.00
2015,04,11,10,38,8.00
2015,04,11,10,39,8.00
2015,04,11,10,40,8.10
2015,04,11,10,41,8.20
2015,04,11,10,42,8.20
2015,04,11,10,43,8.30
2015,04,11,10,44,8.30
2015,04,11,10,45,8.40
2015,04,11,10,46,8.40
2015,04,11,10,47,8.50
2015,04,11,10,48,8.60
2015,04,11,10,49,8.60
2015,04,11,10,50,8.70
2015,04,11,10,51,8.70
2015,04,11,10,52,8.70
2015,04,11,10,53,8.70
2015,04,11,10,54,8.70
2015,04,11,10,55,8.80
2015,04,11,10,56,8.80
2015,04,11,10,57,8.90
2015,04,11,10,58,9.10
2015,04,11,10,59,9.20
2015,04,11,11,00,9.30
2015,04,11,11,01,9.40
2015,04,11,11,02,9.50
2015,04,11,11,03,9.60
2015,04,11,11,04,9.70
2015,04,11,11,05,9.70
2015,04,11,11,06,9.70
2015,04,11,11,07,9.70
2015,04,11,11,08,9.70
2015,04,11,11,09,9.70
2015,04,11,11,10,9.70
2015,04,11,11,11,9.70
2015,04,11,11,12,9.70
2015,04,11,11,13,9.70
2015,04,11,11,14,9.70
2015,04,11,11,15,9.80
2015,04,11,11,16,9.90
2015,04,11,11,17,10.00
2015,04,11,11,18,10.10
2015,04,11,11,19,10.20
2015,04,11,11,20,10.20
2015,04,11,11,21,10.20
2015,04,11,11,22,10.20
2015,04,11,11,23,10.20
2015,04,11,11,24,10.30
2015,04,11,11,25,10.30
2015,04,11,11,26,10.30
2015,04,11,11,27,10.20
2015,04,11,11,28,10.20
2015,04,11,11,29,10.20
2015,04,11,11,30,10.20
2015,04,11,11,31,10.20
2015,04,11,11,32,10.30
2015,04,11,11,33,10.30
2015,04,11,11,34,10.30
2015,04,11,11,35,10.30
2015,04,11,11,36,10.40
2015,04,11,11,37,10.40
2015,04,11,11,38,10.50
2015,04,11,11,39,10.50
2015,04,11,11,40,10.40
2015,04,11,11,41,10.40
2015,04,11,11,42,10.40
2015,04,11,11,43,10.30
2015,04,11,11,44,10.30
2015,04,11,11,45,10.30
2015,04,11,11,46,10.40
2015,04,11,11,47,10.40
2015,04,11,11,48,10.50
2015,04,11,11,49,10.50
2015,04,11,11,50,10.60
2015,04,11,11,51,10.70
2015,04,11,11,52,10.70
2015,04,11,11,53,10.80
2015,04,11,11,54,10.80
2015,04,11,11,55,11.00
2015,04,11,11,56,11.00
2015,04,11,11,57,11.00
2015,04,11,11,58,11.00
2015,04,11,11,59,11.00
2015,04,11,12,00,11.10
2015,04,11,12,01,11.10
2015,04,11,12,02,11.00
2015,04,11,12,03,10.80
2015,04,11,12,04,10.60
2015,04,11,12,05,10.50
2015,04,11,12,06,10.30
2015,04,11,12,07,10.10
2015,04,11,12,08,10.00
2015,04,11,12,09,9.90
2015,04,11,12,10,9.80
2015,04,11,12,11,9.80
2015,04,11,12,12,9.80
2015,04,11,12,13,9.80
2015,04,11,12,14,9.80
2015,04,11,12,15,9.80
2015,04,11,12,16,9.80
2015,04,11,12,17,9.80
2015,04,11,12,18,9.80
2015,04,11,12,19,9.80
2015,04,11,12,20,9.80
2015,04,11,12,21,9.80
2015,04,11,12,22,9.90
2015,04,11,12,23,9.90
2015,04,11,12,24,10.00
2015,04,11,12,25,10.00
2015,04,11,12,26,10.10
2015,04,11,12,27,10.20
2015,04,11,12,28,10.20
2015,04,11,12,29,10.30
2015,04,11,12,30,10.40
2015,04,11,12,31,10.50
2015,04,11,12,32,10.50
2015,04,11,12,33,10.60
2015,04,11,12,34,10.60
2015,04,11,12,35,10.70
2015,04,11,12,36,10.80
2015,04,11,12,37,10.80
2015,04,11,12,38,10.80
2015,04,11,12,39,10.80
2015,04,11,12,40,10.90
2015,04,11,12,41,11.00
2015,04,11,12,42,11.10
2015,04,11,12,43,11.10
2015,04,11,12,44,11.10
2015,04,11,12,45,11.10
2015,04,11,12,46,11.10
2015,04,11,12,47,11.30
2015,04,11,12,48,11.30
2015,04,11,12,49,11.30
2015,04,11,12,50,11.40
2015,04,11,12,51,11.30
2015,04,11,12,52,11.20
2015,04,11,12,53,11.20
2015,04,11,12,54,11.30
2015,04,11,12,55,11.30
2015,04,11,12,56,11.30
2015,04,11,12,57,11.20
2015,04,11,12,58,11.30
2015,04,11,12,59,11.30
2015,04,11,13,00,11.30
2015,04,11,13,01,11.20
2015,04,11,13,02,11.20
2015,04,11,13,03,11.20
2015,04,11,13,04,11.10
2015,04,11,13,05,11.00
2015,04,11,13,06,10.90
2015,04,11,13,07,10.80
2015,04,11,13,08,10.80
2015,04,11,13,09,10.70
2015,04,11,13,10,10.70
2015,04,11,13,11,10.70
2015,04,11,13,12,10.80
2015,04,11,13,13,10.80
2015,04,11,13,14,10.70
2015,04,11,13,15,10.60
2015,04,11,13,16,10.60
2015,04,11,13,17,10.60
2015,04,11,13,18,10.60
2015,04,11,13,19,10.50
2015,04,11,13,20,10.50
2015,04,11,13,21,10.50
2015,04,11,13,22,10.50
2015,04,11,13,23,10.60
2015,04,11,13,24,10.70
2015,04,11,13,25,10.70
2015,04,11,13,26,10.80
2015,04,11,13,27,10.80
2015,04,11,13,28,10.70
2015,04,11,13,29,10.70
2015,04,11,13,30,10.70
2015,04,11,13,31,10.70
2015,04,11,13,32,10.70
2015,04,11,13,33,10.70
2015,04,11,13,34,10.80
2015,04,11,13,35,10.80
2015,04,11,13,36,10.80
2015,04,11,13,37,10.80
2015,04,11,13,38,10.80
2015,04,11,13,39,10.80
2015,04,11,13,40,10.90
2015,04,11,13,41,10.90
2015,04,11,13,42,10.90
2015,04,11,13,43,10.90
2015,04,11,13,44,11.00
2015,04,11,13,45,11.00
2015,04,11,13,46,11.10
2015,04,11,13,47,11.10
2015,04,11,13,48,11.10
2015,04,11,13,49,11.10
2015,04,11,13,50,11.10
2015,04,11,13,51,11.10
2015,04,11,13,52,11.10
2015,04,11,13,53,11.00
2015,04,11,13,54,10.90
2015,04,11,13,55,11.00
2015,04,11,13,56,11.10
2015,04,11,13,57,11.10
2015,04,11,13,58,11.10
2015,04,11,13,59,11.10
2015,04,11,14,00,11.10
2015,04,11,14,01,11.10
2015,04,11,14,02,11.20
2015,04,11,14,03,11.20
2015,04,11,14,04,11.20
2015,04,11,14,05,11.10
2015,04,11,14,06,11.10
2015,04,11,14,07,11.10
2015,04,11,14,08,11.10
2015,04,11,14,09,11.00
2015,04,11,14,10,10.90
2015,04,11,14,11,10.90
2015,04,11,14,12,10.90
2015,04,11,14,13,10.90
2015,04,11,14,14,10.80
2015,04,11,14,15,10.80
2015,04,11,14,16,10.70
2015,04,11,14,17,10.80
2015,04,11,14,18,10.80
2015,04,11,14,19,10.90
2015,04,11,14,20,11.00
2015,04,11,14,21,11.10
2015,04,11,14,22,11.10
2015,04,11,14,23,11.20
2015,04,11,14,24,11.20
2015,04,11,14,25,11.20
2015,04,11,14,26,11.20
2015,04,11,14,27,11.30
2015,04,11,14,28,11.40
2015,04,11,14,29,11.40
2015,04,11,14,30,11.40
2015,04,11,14,31,11.30
2015,04,11,14,32,11.20
2015,04,11,14,33,11.00
2015,04,11,14,34,10.90
2015,04,11,14,35,10.80
2015,04,11,14,36,10.80
2015,04,11,14,37,10.80
2015,04,11,14,38,10.90
2015,04,11,14,39,11.00
2015,04,11,14,40,11.10
2015,04,11,14,41,11.20
2015,04,11,14,42,11.20
2015,04,11,14,43,11.10
2015,04,11,14,44,11.10
2015,04,11,14,45,11.10
2015,04,11,14,46,11.10
2015,04,11,14,47,11.10
2015,04,11,14,48,11.20
2015,04,11,14,49,11.20
2015,04,11,14,50,11.20
2015,04,11,14,51,11.20
2015,04,11,14,52,11.20
2015,04,11,14,53,11.10
2015,04,11,14,54,11.00
2015,04,11,14,55,11.00
2015,04,11,14,56,11.00
2015,04,11,14,57,11.00
2015,04,11,14,58,11.00
2015,04,11,14,59,11.10
2015,04,11,15,00,11.20
2015,04,11,15,01,11.30
2015,04,11,15,02,11.40
2015,04,11,15,03,11.40
2015,04,11,15,04,11.40
2015,04,11,15,05,11.30
2015,04,11,15,06,11.30
2015,04,11,15,07,11.20
2015,04,11,15,08,11.20
2015,04,11,15,09,11.10
2015,04,11,15,10,11.00
2015,04,11,15,11,11.00
2015,04,11,15,12,10.90
2015,04,11,15,13,10.90
2015,04,11,15,14,10.90
2015,04,11,15,15,10.90
2015,04,11,15,16,10.90
2015,04,11,15,17,10.80
2015,04,11,15,18,10.70
2015,04,11,15,19,10.60
2015,04,11,15,20,10.50
2015,04,11,15,21,10.50
2015,04,11,15,22,10.40
2015,04,11,15,23,10.30
2015,04,11,15,24,10.30
2015,04,11,15,25,10.40
2015,04,11,15,26,10.40
2015,04,11,15,27,10.40
2015,04,11,15,28,10.40
2015,04,11,15,29,10.40
2015,04,11,15,30,10.40
2015,04,11,15,31,10.40
2015,04,11,15,32,10.40
2015,04,11,15,33,10.50
2015,04,11,15,34,10.50
2015,04,11,15,35,10.50
2015,04,11,15,36,10.50
2015,04,11,15,37,10.50
2015,04,11,15,38,10.50
2015,04,11,15,39,10.50
2015,04,11,15,40,10.50
2015,04,11,15,41,10.50
2015,04,11,15,42,10.50
2015,04,11,15,43,10.50
2015,04,11,15,44,10.60
2015,04,11,15,45,10.60
2015,04,11,15,46,10.60
2015,04,11,15,47,10.70
2015,04,11,15,48,10.70
2015,04,11,15,49,10.70
2015,04,11,15,50,10.60
2015,04,11,15,51,10.50
2015,04,11,15,52,10.50
2015,04,11,15,53,10.50
2015,04,11,15,54,10.50
2015,04,11,15,55,10.60
2015,04,11,15,56,10.70
2015,04,11,15,57,10.80
2015,04,11,15,58,10.70
2015,04,11,15,59,10.70
2015,04,11,16,00,10.70
2015,04,11,16,01,10.60
2015,04,11,16,02,10.60
2015,04,11,16,03,10.60
2015,04,11,16,04,10.60
2015,04,11,16,05,10.70
2015,04,11,16,06,10.70
2015,04,11,16,07,10.80
2015,04,11,16,08,10.80
2015,04,11,16,09,10.90
2015,04,11,16,10,10.90
2015,04,11,16,11,10.90
2015,04,11,16,12,10.80
2015,04,11,16,13,10.80
2015,04,11,16,14,10.70
2015,04,11,16,15,10.70
2015,04,11,16,16,10.70
2015,04,11,16,17,10.70
2015,04,11,16,18,10.70
2015,04,11,16,19,10.70
2015,04,11,16,20,10.70
2015,04,11,16,21,10.70
2015,04,11,16,22,10.70
2015,04,11,16,23,10.60
2015,04,11,16,24,10.50
2015,04,11,16,25,10.40
2015,04,11,16,26,10.50
2015,04,11,16,27,10.50
2015,04,11,16,28,10.50
2015,04,11,16,29,10.50
2015,04,11,16,30,10.60
2015,04,11,16,31,10.60
2015,04,11,16,32,10.50
2015,04,11,16,33,10.60
2015,04,11,16,34,10.60
2015,04,11,16,35,10.60
2015,04,11,16,36,10.60
2015,04,11,16,37,10.60
2015,04,11,16,38,10.60
2015,04,11,16,39,10.60
2015,04,11,16,40,10.60
2015,04,11,16,41,10.50
2015,04,11,16,42,10.40
2015,04,11,16,43,10.30
2015,04,11,16,44,10.20
2015,04,11,16,45,10.10
2015,04,11,16,46,10.00
2015,04,11,16,47,9.90
2015,04,11,16,48,9.90
2015,04,11,16,49,9.90
2015,04,11,16,50,9.90
2015,04,11,16,51,9.90
2015,04,11,16,52,9.90
2015,04,11,16,53,9.80
2015,04,11,16,54,9.80
2015,04,11,16,55,9.80
2015,04,11,16,56,9.70
2015,04,11,16,57,9.60
2015,04,11,16,58,9.50
2015,04,11,16,59,9.50
2015,04,11,17,00,9.40
2015,04,11,17,01,9.40
2015,04,11,17,02,9.40
2015,04,11,17,03,9.40
2015,04,11,17,04,9.30
2015,04,11,17,05,9.20
2015,04,11,17,06,9.10
2015,04,11,17,07,9.10
2015,04,11,17,08,9.00
2015,04,11,17,09,8.90
2015,04,11,17,10,8.70
2015,04,11,17,11,8.70
2015,04,11,17,12,8.70
2015,04,11,17,13,8.70
2015,04,11,17,14,8.70
2015,04,11,17,15,8.70
2015,04,11,17,16,8.80
2015,04,11,17,17,8.80
2015,04,11,17,18,8.80
2015,04,11,17,19,8.80
2015,04,11,17,20,8.70
2015,04,11,17,21,8.80
2015,04,11,17,22,8.80
2015,04,11,17,23,8.90
2015,04,11,17,24,9.00
2015,04,11,17,25,9.10
2015,04,11,17,26,9.10
2015,04,11,17,27,9.20
2015,04,11,17,28,9.20
2015,04,11,17,29,9.20
2015,04,11,17,30,9.30
2015,04,11,17,31,9.40
2015,04,11,17,32,9.40
2015,04,11,17,33,9.40
2015,04,11,17,34,9.30
2015,04,11,17,35,9.20
2015,04,11,17,36,9.00
2015,04,11,17,37,9.00
2015,04,11,17,38,9.00
2015,04,11,17,39,8.90
2015,04,11,17,40,8.90
2015,04,11,17,41,8.90
2015,04,11,17,42,8.90
2015,04,11,17,43,8.90
2015,04,11,17,44,9.00
2015,04,11,17,45,9.00
2015,04,11,17,46,9.00
2015,04,11,17,47,9.00
2015,04,11,17,48,8.90
2015,04,11,17,49,8.90
2015,04,11,17,50,8.80
2015,04,11,17,51,8.90
2015,04,11,17,52,8.90
2015,04,11,17,53,9.00
2015,04,11,17,54,9.10
2015,04,11,17,55,9.10
2015,04,11,17,56,9.10